Location: Cornospital
(48.0620°N, 3.3837°W)
Time: 23:41:01
(UTC+00:00)

COSMOS 1408 DEB - Visible Passes

Search period start: 10 August 2022 00:00
Search period end: 20 August 2022 00:00
Orbit: 436 x 516 km, 82.5° (Epoch: 10 August)

Date Brightness Start Highest point End Pass type
(mag) Time Alt. Az. Time Alt. Az. Time Alt. Az.
10 Aug ? 04:15:05 10° N 04:18:33 34° ENE 04:21:55 10° SE visible
11 Aug ? 03:48:02 10° NNE 03:51:00 22° ENE 03:53:53 10° ESE visible
12 Aug ? 03:21:19 10° NNE 03:23:19 14° ENE 03:25:18 10° E visible
13 Aug ? 04:27:22 10° N 04:31:05 87° W 04:34:41 10° S visible
14 Aug ? 03:59:52 10° N 04:03:31 53° ENE 04:07:01 10° SSE visible
15 Aug ? 03:32:29 10° N 03:35:49 31° ENE 03:39:03 10° SE visible
16 Aug ? 03:05:17 10° NNE 03:08:01 20° ENE 03:10:42 10° ESE visible
17 Aug ? 02:38:30 10° NE 02:40:06 12° ENE 02:41:42 10° E visible
17 Aug ? 04:11:48 10° NNW 04:15:23 54° W 04:18:50 10° S visible
18 Aug ? 03:44:01 10° N 03:47:40 84° E 03:51:12 10° S visible
19 Aug ? 03:16:20 10° N 03:19:51 47° ENE 03:23:15 10° SSE visible
